{"data":{"norad_id":61061,"epoch":"2026-09-21T16:55:54.424128Z","epoch_age_seconds":87973,"freshness":"FRESH","line1":"1 61061U 24164M   26264.70549102 -.00000311  00000+0  22865-5 0  9992","line2":"2 61061  53.1587  65.1058 0000782  76.8585 283.2521 15.69705616116205","mean_motion":15.69705616,"eccentricity":7.82e-5,"inclination_deg":53.1587,"raan_deg":65.1058,"arg_perigee_deg":76.8585,"mean_anomaly_deg":283.2521,"bstar":2.2865e-6,"rev_number":11620,"period_min":91.736946426265,"perigee_km":359.21239385254,"apogee_km":360.2661977052,"semimajor_km":6737.8762957789,"source":"CELESTRAK","updated_at":"2026-09-22T09:00:49.333266Z"}}